FENGYUN 1C DEB

Satellite information

Favourite Embed

Satellite Type and Status

DEBRISIN ORBIT

Key statistics

Satellite FENGYUN 1C DEB at a glance.

Uptime

9667

Days in orbit

Revolutions

≈ 14.2

Per day

Orbit

SSO

Sun Synchronous Orbit

Inclination

98.6

Latest

Satellite identification and parameters

Extended collection of information and parameters for FENGYUN 1C DEB.

Object identification

Identified? True

Debris? True

Object name: FENGYUN 1C DEB

International designator: 1999-025DUR

Object number (NORAD): 36216

Object ID (CCSDS): 36216

Country: PEOPLES REPUBLIC OF CHINA (PRC)

Current information (Y/N): Y

RCS size: SMALL

Orbital parameters

Period: 101.497 minutes

Inclination: 98.6132 deg

SMA: 7207.697 km

Apoapsis: 862.342 km

Periapsis: 796.782 km

RAAN: 320.9205 deg

Eccentricy: 0.00454791

Argument of periapsis: 152.2669 deg

Mean anomaly: 208.0946 deg

Mean motion: 14.18756868 rev/day

Mean motion (dot): 0.00000738 rev/day2

B* drag term: 0.00037172259 1/REarth

Two-line elements (TLE)

Creation date: Oct. 27, 2025, 2:46 a.m.

Reference frame: TEME

Reference center: EARTH

Epoch: Oct. 26, 2025, 8:15 a.m. UTC

TLE line 0: 0 FENGYUN 1C DEB

TLE line 1: 1 36216U 99025DUR 25299.34398572 .00000738 00000-0 37172-3 0 9992

TLE line 2: 2 36216 98.6132 320.9205 0045479 152.2669 208.0946 14.18756868637009

Live tracking on map

Real-time ground track for satellite FENGYUN 1C DEB.

In-orbit conjunctions

A list of the most updated potential collisions computed for object FENGYUN 1C DEB.

Target Orbit TCA Probability of collision Miss distance Type
CZ-6A DEB LEO 2024-11-09 13:09:53 0.0003389559 895.0 (m) DEBRIS
ARGOS SSO 2024-06-01 16:25:47 0.0002409382 486.0 (m) PAYLOAD

Associated space launch

Chinese polar orbiting meteorological satellite

FENGYUN 1C DEB was lifted into orbit during the mission ‘Long March 4B | Feng Yun 1C’, on board a Long March 4B space rocket.

The launch took place on May 10, 1999, 1:33 a.m. from Launch Complex 7.

For more information about the launch, click the button.

Launch to space Long March 4B | Feng Yun 1C
Long March 4B | Feng Yun 1C

Agency: N/A

Status: Launch Successful

Launch date: May 10, 1999, 1:33 a.m. UTC

Rocket: Long March 4B

Launch pad: Launch Complex 7

Location: Taiyuan Satellite Launch Center, People's Republic of China

...

Latest news about this satellite

There are no fresh news available about this satellite. Check back as we update our databases every day.


Newsletter sign-up

Weekly statistics, charts and insights to help you stay on top of the space industry.